STARLINK-11566, 62914

Orbit data source: Space-Track

STARLINK-11566, 62914 is a payload satellite owned by SpaceX/Seattle (US) in LEO that was launched on Sat, 08 Feb 2025 UTC via an FALCON 9 launch vehicle from the Air Force Eastern Test Range (AFETR). Payload-class satellites include a variety of spacecraft equipped with specific instruments for various scientific and technological missions. These include communications satellites like Starlink; space stations such as the ISS; scientific satellites like the Hubble; Earth observation satellites from companies like Planet Labs, Umbra, and HawkEye 360; GPS; miniature CubeSats for education and research; and military/defense satellites.

Loading next visibility...
Identifier
62914, 2025-027H
Orbit
LEO
Country
Flag of USUS
Related business
Manufacturer
SpaceX/Seattle
Mission
Operational Commercial Communications
Bus & Motor
STARLINK V2MD, Unknown motor
Mass
960 kg wet, ~910 kg dry
Launch date (UTC)
2025-02-08 (7 months ago)
Launch vehicle
FALCON 9
Launch site
Air Force Eastern Test Range (AFETR)
Object type
Payload
Rocket body
Debris
Shape & HBR
Box + 2 Pan, 14.5 m
Radar Cross Section
36.964 m², Large (>1 m²)

Expand to show TLE details & history
Last TLE update: 17 hours ago

TLE from 17 hours ago
0 STARLINK-11566
1 62914U 25027H   25261.15318110  .00190466  00000-0  14434-2 0  9998
2 62914  42.9984 307.9245 0001840 140.0855 220.0148 15.71014865 36055
Epoch: 2025-09-18T03:40Z
TLE epoch observation values (Epoch: 2025-09-18T03:40:34.847Z)
Latitude
-0.00001°
Longitude
-104.53958°
Altitude
356.715 km
Speed
7.696 km/s
True Right ascension
20h 31m 41s
True Declination
0° 00' 00"
Sunlit
Object was in full shadow at epoch
Visualization orbit readout
Latitude
Unknown
Longitude
Unknown
Altitude
Unknown
Speed
Unknown
Apparent Right ascension
Unknown
Apparent Declination
Unknown
Sunlit
N/A
Visualization observer readout
Local Sidereal Time
13:03:02
Azimuth
Unknown
Elevation
Unknown
Doppler factor
Unknown
Orbital elements
Apogee altitude
359.217 km
Perigee altitude
356.738 km
Semi-major axis
6,736.114 km
Eccentricity
0.00018
Inclination
42.9984°
RAAN
307.9245°
Arg. of periapsis
140.0855°
True anomaly
220.00125°
Mean anomaly
220.0148°
Eccentric anomaly
220.00802°
Mean motion
3.92581 °/min
Orbital period
91.7 mins
BSTAR
0.0014434
Loading maneuver chart data...
Computing Atmospheric mass density...
Loading historical data...
Loading historical data...
Loading historical data...
Loading historical data...
Loading historical data...
Loading historical data...
Loading historical data...

Documentation

Showing up to 5 results
|